| time (UTC) | temp F | wind direction | speed MPH | gust MPH | rain 1hr in | rain 24hr in | rain mn in | humidity % | barometer mb |
| 20260508151600 | 60 | 281 | 0.0 | 0.0 | 0.00 | 0.00 | 0.00 | 49 | 1016.5 |
| 20260508150034 | 59 | 246 | 0.0 | 0.0 | 0.00 | 0.00 | 0.00 | 51 | 1016.6 |
| 20260508144544 | 58 | 227 | 0.0 | 0.0 | 0.00 | 0.00 | 0.00 | 50 | 1016.7 |
| 20260508143006 | 58 | 286 | 0.0 | 0.0 | 0.00 | 0.00 | 0.00 | 53 | 1016.7 |
| 20260508141608 | 57 | 268 | 0.0 | 15.0 | 0.00 | 0.00 | 0.00 | 51 | 1016.8 |
| 20260508140049 | 56 | 273 | 0.0 | 1.0 | 0.00 | 0.00 | 0.00 | 55 | 1016.9 |
| 20260508134542 | 55 | 255 | 0.0 | 11.0 | 0.00 | 0.00 | 0.00 | 57 | 1017.1 |
| 20260508133057 | 53 | 288 | 0.0 | 0.0 | 0.00 | 0.00 | 0.00 | 63 | 1017.2 |
| 20260508131530 | 51 | 287 | 0.0 | 0.0 | 0.00 | 0.00 | 0.00 | 67 | 1017.1 |
| 20260508130025 | 48 | 283 | 0.0 | 0.0 | 0.00 | 0.00 | 0.00 | 44 | 1017.3 |
| 20260508124520 | 45 | 242 | 0.0 | 0.0 | 0.00 | 0.00 | 0.00 | 1 | 1017.2 |
| 20260508123017 | 43 | 242 | 0.0 | 0.0 | 0.00 | 0.00 | 0.00 | 1 | 1017.2 |
| 20260508121512 | 41 | 253 | 0.0 | 0.0 | 0.00 | 0.00 | 0.00 | 1 | 1017.2 |
| 20260508120053 | 39 | 265 | 0.0 | 0.0 | 0.00 | 0.00 | 0.00 | 1 | 1017.1 |
| 20260508114547 | 37 | 305 | 0.0 | 0.0 | 0.00 | 0.00 | 0.00 | 1 | 1017.0 |
| 20260508113025 | 36 | 305 | 0.0 | 0.0 | 0.00 | 0.00 | 0.00 | 1 | 1016.9 |
| 20260508111521 | 34 | 310 | 0.0 | 0.0 | 0.00 | 0.00 | 0.00 | 1 | 1016.8 |
| 20260508110101 | 0 | 0.0 | 0.0 | 0.00 | 0.00 | 0.00 | 1016.7 | ||
| 20260508104555 | 0 | 0.0 | 0.0 | 0.00 | 0.00 | 0.00 | 1016.5 | ||
| 20260508103035 | 0 | 0.0 | 0.0 | 0.00 | 0.00 | 0.00 | 1016.5 | ||
| 20260508101532 | 0 | 0.0 | 0.0 | 0.00 | 0.00 | 0.00 | 1016.3 | ||
| 20260508100018 | 0 | 0.0 | 0.0 | 0.00 | 0.00 | 0.00 | 1016.4 | ||
| 20260508094509 | 0 | 0.0 | 0.0 | 0.00 | 0.00 | 0.00 | 1016.3 | ||
| 20260508093007 | 32 | 293 | 0.0 | 0.0 | 0.00 | 0.00 | 0.00 | 1 | 1016.2 |
| 20260508091501 | 33 | 293 | 0.0 | 0.0 | 0.00 | 0.00 | 0.00 | 1 | 1016.3 |
| 20260508090110 | 33 | 293 | 0.0 | 0.0 | 0.00 | 0.00 | 0.00 | 1 | 1016.3 |
| 20260508084553 | 33 | 293 | 0.0 | 0.0 | 0.00 | 0.00 | 0.00 | 1 | 1016.3 |
| 20260508083048 | 33 | 293 | 0.0 | 0.0 | 0.00 | 0.00 | 0.00 | 1 | 1016.2 |
| 20260508081544 | 33 | 293 | 0.0 | 0.0 | 0.00 | 0.00 | 0.00 | 1 | 1016.2 |
| 20260508080022 | 34 | 293 | 0.0 | 0.0 | 0.00 | 0.00 | 0.00 | 1 | 1016.1 |
| 20260508074521 | 34 | 293 | 0.0 | 0.0 | 0.00 | 0.00 | 0.00 | 1 | 1016.0 |
| 20260508073002 | 34 | 293 | 0.0 | 0.0 | 0.00 | 0.00 | 0.00 | 1 | 1016.0 |
| 20260508071604 | 34 | 293 | 0.0 | 0.0 | 0.00 | 0.00 | 0.00 | 1 | 1016.0 |
| 20260508070054 | 34 | 293 | 0.0 | 0.0 | 0.00 | 0.00 | 0.00 | 1 | 1016.0 |
| 20260508064549 | 34 | 293 | 0.0 | 0.0 | 0.00 | 0.00 | 0.00 | 1 | 1015.9 |
| 20260508063045 | 35 | 293 | 0.0 | 0.0 | 0.00 | 0.00 | 0.00 | 1 | 1016.1 |
| 20260508061540 | 35 | 293 | 0.0 | 0.0 | 0.00 | 0.00 | 0.00 | 2 | 1016.0 |
| 20260508060036 | 35 | 293 | 0.0 | 0.0 | 0.00 | 0.00 | 0.00 | 4 | 1015.8 |
| 20260508054532 | 36 | 293 | 0.0 | 0.0 | 0.00 | 0.00 | 0.00 | 6 | 1016.0 |
| 20260508053045 | 36 | 293 | 0.0 | 0.0 | 0.00 | 0.00 | 0.00 | 9 | 1016.1 |
| 20260508051507 | 36 | 293 | 0.0 | 0.0 | 0.00 | 0.00 | 0.00 | 12 | 1016.1 |
| 20260508050002 | 37 | 293 | 0.0 | 0.0 | 0.00 | 0.00 | 0.00 | 17 | 1016.1 |
| 20260508044540 | 37 | 293 | 0.0 | 0.0 | 0.00 | 0.00 | 0.00 | 20 | 1016.0 |
| 20260508043038 | 38 | 293 | 0.0 | 0.0 | 0.00 | 0.00 | 0.00 | 26 | 1015.8 |
| 20260508041529 | 39 | 293 | 0.0 | 0.0 | 0.00 | 0.00 | 0.00 | 31 | 1015.7 |
| 20260508040019 | 39 | 293 | 0.0 | 0.0 | 0.00 | 0.00 | 0.00 | 34 | 1015.6 |
| 20260508034558 | 40 | 293 | 0.0 | 0.0 | 0.00 | 0.00 | 0.00 | 40 | 1015.5 |
| 20260508033050 | 41 | 293 | 0.0 | 0.0 | 0.00 | 0.00 | 0.00 | 43 | 1015.3 |
| 20260508031535 | 42 | 293 | 0.0 | 0.0 | 0.00 | 0.00 | 0.00 | 48 | 1015.2 |
| 20260508030031 | 42 | 293 | 0.0 | 0.0 | 0.00 | 0.00 | 0.00 | 53 | 1015.1 |
| 20260508024503 | 43 | 293 | 0.0 | 0.0 | 0.00 | 0.00 | 0.00 | 56 | 1014.9 |
| 20260508023058 | 44 | 293 | 0.0 | 0.0 | 0.00 | 0.00 | 0.00 | 60 | 1014.8 |
| 20260508021539 | 45 | 293 | 0.0 | 0.0 | 0.00 | 0.00 | 0.00 | 65 | 1014.5 |
| 20260508020041 | 46 | 293 | 0.0 | 0.0 | 0.00 | 0.00 | 0.00 | 66 | 1014.3 |
| 20260508014511 | 48 | 293 | 0.0 | 0.0 | 0.00 | 0.00 | 0.00 | 68 | 1014.1 |
| 20260508013007 | 50 | 293 | 0.0 | 0.0 | 0.00 | 0.00 | 0.00 | 65 | 1013.8 |
| 20260508011554 | 53 | 293 | 0.0 | 0.0 | 0.00 | 0.00 | 0.00 | 57 | 1013.6 |
| 20260508010041 | 54 | 293 | 0.0 | 0.0 | 0.00 | 0.00 | 0.00 | 47 | 1013.3 |
| 20260508004519 | 55 | 303 | 0.0 | 0.0 | 0.00 | 0.01 | 0.00 | 46 | 1013.3 |
| 20260508003015 | 56 | 321 | 0.0 | 0.0 | 0.00 | 0.01 | 0.00 | 48 | 1013.0 |
| 20260508001554 | 57 | 304 | 0.0 | 0.0 | 0.00 | 0.01 | 0.00 | 46 | 1012.7 |
| 20260508000049 | 58 | 304 | 0.0 | 0.0 | 0.00 | 0.01 | 0.00 | 44 | 1012.4 |
| 20260507234527 | 58 | 310 | 0.0 | 0.0 | 0.00 | 0.01 | 0.00 | 42 | 1012.3 |
| 20260507233041 | 60 | 305 | 0.0 | 1.0 | 0.00 | 0.01 | 0.00 | 41 | 1012.1 |
| 20260507231502 | 60 | 298 | 0.0 | 1.0 | 0.00 | 0.01 | 0.00 | 40 | 1011.9 |
| 20260507230059 | 60 | 330 | 0.0 | 0.0 | 0.00 | 0.01 | 0.00 | 43 | 1011.9 |
| 20260507224539 | 60 | 315 | 0.0 | 0.0 | 0.00 | 0.01 | 0.00 | 43 | 1011.9 |
| 20260507223032 | 61 | 293 | 0.0 | 9.0 | 0.00 | 0.01 | 0.00 | 41 | 1011.7 |
| 20260507221521 | 62 | 281 | 0.0 | 8.0 | 0.00 | 0.01 | 0.00 | 42 | 1011.7 |
| 20260507220011 | 61 | 296 | 0.0 | 1.0 | 0.00 | 0.01 | 0.00 | 43 | 1011.5 |
| 20260507214507 | 62 | 255 | 0.0 | 1.0 | 0.00 | 0.03 | 0.00 | 40 | 1011.3 |
| 20260507213007 | 63 | 264 | 0.0 | 0.0 | 0.00 | 0.03 | 0.00 | 43 | 1011.2 |
| 20260507211559 | 61 | 298 | 0.0 | 0.0 | 0.00 | 0.03 | 0.00 | 46 | 1011.1 |
| 20260507210058 | 62 | 301 | 0.0 | 0.0 | 0.00 | 0.03 | 0.00 | 43 | 1011.1 |
| 20260507204549 | 62 | 269 | 0.0 | 0.0 | 0.00 | 0.03 | 0.00 | 48 | 1011.1 |
| 20260507203047 | 61 | 305 | 0.0 | 0.0 | 0.00 | 0.03 | 0.00 | 47 | 1011.1 |
| 20260507201523 | 61 | 271 | 0.0 | 0.0 | 0.00 | 0.03 | 0.00 | 45 | 1011.2 |
| 20260507200018 | 62 | 288 | 0.0 | 0.0 | 0.00 | 0.03 | 0.00 | 45 | 1011.2 |
| 20260507194619 | 63 | 333 | 0.0 | 0.0 | 0.00 | 0.03 | 0.00 | 44 | 1011.5 |
| 20260507193055 | 62 | 311 | 0.0 | 1.0 | 0.00 | 0.03 | 0.00 | 47 | 1011.8 |
| 20260507191534 | 60 | 281 | 0.0 | 0.0 | 0.00 | 0.03 | 0.00 | 49 | 1011.8 |
| 20260507190025 | 60 | 329 | 0.0 | 0.0 | 0.00 | 0.03 | 0.00 | 50 | 1011.8 |
| 20260507184505 | 61 | 304 | 0.0 | 0.0 | 0.00 | 0.03 | 0.00 | 48 | 1011.9 |
| 20260507183001 | 62 | 287 | 0.0 | 0.0 | 0.00 | 0.03 | 0.00 | 50 | 1011.9 |
| 20260507181538 | 61 | 301 | 0.0 | 0.0 | 0.00 | 0.03 | 0.00 | 54 | 1012.0 |
| 20260507180037 | 60 | 274 | 0.0 | 0.0 | 0.00 | 0.03 | 0.00 | 52 | 1012.1 |
| 20260507174516 | 61 | 327 | 0.0 | 1.0 | 0.00 | 0.03 | 0.00 | 50 | 1012.2 |
| 20260507173008 | 60 | 296 | 0.0 | 0.0 | 0.00 | 0.03 | 0.00 | 55 | 1012.4 |
| 20260507171554 | 59 | 274 | 0.0 | 1.0 | 0.00 | 0.03 | 0.00 | 57 | 1012.6 |
| 20260507170044 | 59 | 360 | 0.0 | 0.0 | 0.00 | 0.03 | 0.00 | 52 | 1012.9 |
| 20260507164528 | 59 | 355 | 0.0 | 0.0 | 0.00 | 0.04 | 0.00 | 51 | 1013.0 |
| 20260507163018 | 59 | 288 | 0.0 | 0.0 | 0.00 | 0.04 | 0.00 | 54 | 1013.0 |
| 20260507161604 | 58 | 292 | 0.0 | 0.0 | 0.00 | 0.04 | 0.00 | 54 | 1013.2 |
| 20260507160051 | 58 | 308 | 0.0 | 0.0 | 0.00 | 0.04 | 0.00 | 54 | 1013.4 |
| 20260507154529 | 58 | 296 | 0.0 | 0.0 | 0.00 | 0.05 | 0.00 | 57 | 1013.6 |
| 20260507153028 | 57 | 279 | 0.0 | 0.0 | 0.00 | 0.05 | 0.00 | 58 | 1013.5 |